Regional Weather Roundup
Issued by NWS

Home | Current Version | Previous Version | Text Only | Print | Product List | Glossary Off
Versions: 1 2 3 4 5 6 7 8 9 10 11 12 13 14 15 16 17 18 19 20 21 22 23 24 25 26 27 28

000
ASUS45 KSLC 271710
RWRUT

UTAH REGIONAL WEATHER ROUNDUP
NATIONAL WEATHER SERVICE SALT LAKE CITY UT
1100 AM MDT FRI MAY 27 2016

UTZ001>011-023>025-271800-

NORTHERN UTAH

CITY           SKY/WX    TMP DP  RH WIND       PRES   REMARKS
BRIGHAM CITY     N/A     62  41  46 S3        29.97F
HILL AFB       MOSUNNY   60  43  51 SW3       29.98F
LOGAN          SUNNY     61  45  55 CALM      29.96F
OGDEN          MOSUNNY   62  45  53 VRB5      29.97S
PROVO AIRPORT  MOSUNNY   59  39  47 VRB5      30.00F
SALT LAKE CITY MOSUNNY   67  40  37 N6        29.96F
VERNAL         SUNNY     61  36  39 SW6       29.96F
WENDOVER       SUNNY     64  36  34 SE5       29.97F
HEBER CITY     CLOUDY    54  39  58 W6        30.00F
WEST JORDAN    CLOUDY    57  41  54 SW6       29.99F

$$

UTZ012>022-026-027-271800-

SOUTHERN/CENTRAL UTAH

CITY           SKY/WX    TMP DP  RH WIND       PRES   REMARKS
BLANDING       SUNNY     60  33  35 S7        30.06S
BRYCE CANYON   SUNNY     56  29  35 NW13      30.08F
CEDAR CITY     SUNNY     61  36  39 VRB3      30.02F
DELTA          SUNNY     61  36  39 W3        30.00F
HANKSVILLE     SUNNY     68  32  26 NE6       29.96F
MILFORD        MOSUNNY   63  38  39 S6        30.01F
MOAB/CYNLANDS  SUNNY     66  35  31 W8        29.93F
PRICE          SUNNY     64  29  26 NW13G21   29.97F
ST GEORGE      MOSUNNY   68  37  32 SW3       29.95F
KANAB          SUNNY     66  36  32 S6        30.02F

$$

REGIONAL REPORTS     COLORADO/ARIZONA

CITY           SKY/WX    TMP DP  RH WIND       PRES   REMARKS
CRAIG, CO      CLOUDY    55  41  59 VRB6      29.98F
GRAND JUNCTION SUNNY     64  37  36 SW8       29.93F
RIFLE          CLOUDY    61  36  39 VRB3      29.94F
MONTROSE       SUNNY     59  36  42 CALM      29.98F
CORTEZ         MOSUNNY   62  32  32 N14       29.96F
PAGE, AZ       SUNNY     69  34  27 VRB7      29.95F
GRAND CANYON   SUNNY     62  29  28 NW12G22   30.07F
KINGMAN        SUNNY     77  30  17 W14       29.95F
FLAGSTAFF        N/A     59  27  29 NW8G20    30.08F

$$

REGIONAL REPORTS    NEVADA/IDAHO/WYOMING

CITY           SKY/WX    TMP DP  RH WIND       PRES   REMARKS
LAS VEGAS, NV  MOSUNNY   79  33  19 CALM      29.86F
ELY            CLOUDY    58  28  32 W6        30.05F
ELKO           SUNNY     60  43  53 SW10      30.00F
POCATELLO, ID  MOSUNNY   62  42  47 SW15G23   29.97F
BURLEY         SUNNY     61  40  45 W18G26    29.96F
EVANSTON, WY   TSTM      44  32  62 N7        30.04F
ROCK SPRINGS   MOSUNNY   53  40  61 W9        30.01F
KEMMERER         N/A     55  32  41 W9G18     30.03S

$$




USA.gov is the U.S. government's official web portal to all federal, state and local government web resources and services.